UITMSAT-2

Last updated on Sun Jun 21 2026 00:02:11 GMT+0000 (Coordinated Universal Time)

1 67686U 98067YC 26171.30122916 .00073009 00000+0 71955-3 0 9992 2 67686 51.6257 276.6025 0005208 224.8016 135.2559 15.65269956 20799
UTC large
Height (km)
Speed (km/s)
/
Latitude / Longitude
Inclination (degrees)
Orbital Period (minutes)
Azimuth
Elevation
Range (km)
Doppler Factor

Next 0 passes for location: London (51.5072 / 0.1276)

No passes found over London.
UITMSAT-2